Mankato, MN

6:49 PM CDT on August 17, 2019 (GMT -0500)
Mankato Regional

Weather History for KMKT - May, 2019

Change the Weather History Date:

Saturday, May 4, 2019

  Actual Average Record
Temperature  
Mean Temperature 56 °F -  
Max Temperature 69 °F 63 °F 87 °F (2000)
Min Temperature 44 °F 43 °F 33 °F (2005)
Degree Days  
Heating Degree Days 8    
Growing Degree Days 6 (Base 50)    
Moisture  
Dew Point 41 °F    
Average Humidity 65    
Maximum Humidity 100    
Minimum Humidity 30    
Precipitation  
Precipitation 0.00 in - - ()
Sea Level Pressure  
Sea Level Pressure 29.93 in    
Wind  
Wind Speed 5 mph (SSW)    
Max Wind Speed 13 mph    
Max Gust Speed 18 mph    
Visibility 8 miles    
Events      
Averages and records for this station are not official NWS values.
T = Trace of Precipitation, MM = Missing Value Source: NWS Daily Summary

Daily Weather History Graph

Daily Weather History Graph

Search for Another Location

Airport or City:

Astronomy

May. 04, 2019 Rise Set
Actual Time 6:02 AM CDT 8:22 PM CDT
Civil Twilight 5:30 AM CDT 8:55 PM CDT
Nautical Twilight 4:50 AM CDT 9:35 PM CDT
Astronomical Twilight 4:06 AM CDT 10:20 PM CDT
Moon 6:18 AM CDT (5/4) 8:10 PM CDT (5/4)
Length of Visible Light 15h 24m
Length of Day
14h 20m
Waning Crescent, 0% of the Moon is Illuminated
May 4
Waning Crescent
May 4
New
May 11
First Quarter
May 18
Full
May 26
Last Quarter

Hourly Weather History & Observations

Time (CDT) Temp. Windchill Dew Point Humidity Pressure Visibility Wind Dir Wind Speed Gust Speed Precip Events Conditions
12:56 AM 50.0 °F - 46.9 °F 89% 29.99 in 10.0 mi Calm Calm - N/A   Clear
2:56 AM 46.9 °F - 46.0 °F 97% 29.98 in 9.0 mi South 3.5 mph - N/A   Clear
3:26 AM 46.4 °F 44.3 °F 46.4 °F 100% 29.96 in 2.5 mi SSE 4.6 mph - N/A   Clear
3:32 AM 46.4 °F 43.5 °F 44.6 °F 93% 29.96 in 1.0 mi SSE 5.8 mph - N/A   Clear
3:42 AM 46.4 °F 42.9 °F 44.6 °F 93% 29.96 in 2.0 mi SSE 6.9 mph - N/A   Clear
3:56 AM 45.0 °F 41.8 °F 45.0 °F 100% 29.98 in 3.0 mi SSE 5.8 mph - N/A   Clear
4:56 AM 45.0 °F 43.5 °F 45.0 °F 100% 29.98 in 8.0 mi South 3.5 mph - N/A   Clear
5:56 AM 44.1 °F 42.5 °F 43.0 °F 96% 29.98 in 6.0 mi South 3.5 mph - N/A   Clear
6:56 AM 44.1 °F 42.5 °F 42.1 °F 93% 29.99 in 8.0 mi SSE 3.5 mph - N/A   Clear
7:56 AM 46.9 °F - 45.0 °F 93% 29.99 in 10.0 mi South 5.8 mph - N/A   Clear
8:56 AM 51.1 °F - 46.9 °F 86% 30.00 in 10.0 mi SSW 4.6 mph - N/A   Clear
9:56 AM 55.9 °F - 48.9 °F 77% 29.99 in 10.0 mi South 6.9 mph - N/A   Clear
10:56 AM 60.1 °F - 50.0 °F 69% 29.98 in 10.0 mi SW 4.6 mph - N/A   Clear
11:56 AM 63.0 °F - 33.1 °F 33% 29.96 in 10.0 mi SW 10.4 mph - N/A   Partly Cloudy
12:56 PM 64.9 °F - 39.0 °F 39% 29.94 in 10.0 mi WSW 8.1 mph - N/A   Clear
1:56 PM 66.9 °F - 37.9 °F 34% 29.92 in 10.0 mi SSW 9.2 mph 18.4 mph N/A   Partly Cloudy
2:56 PM 68.0 °F - 37.0 °F 32% 29.90 in 10.0 mi SSW 10.4 mph 17.3 mph N/A   Partly Cloudy
3:56 PM 68.0 °F - 36.0 °F 31% 29.88 in 10.0 mi West 10.4 mph 17.3 mph N/A   Clear
4:56 PM 69.1 °F - 36.0 °F 30% 29.85 in 10.0 mi SW 12.7 mph - N/A   Clear
5:56 PM 68.0 °F - 36.0 °F 31% 29.84 in 10.0 mi West 12.7 mph - N/A   Clear
7:56 PM 64.9 °F - 36.0 °F 34% 29.84 in 10.0 mi West 6.9 mph - N/A   Clear
8:56 PM 63.0 °F - 36.0 °F 37% 29.84 in 10.0 mi Calm Calm - N/A   Clear
9:56 PM 62.1 °F - 36.0 °F 38% 29.84 in 10.0 mi SSW 5.8 mph - N/A   Clear
10:56 PM 60.1 °F - 35.1 °F 39% 29.82 in 10.0 mi SSW 3.5 mph - N/A   Clear
11:56 PM 55.0 °F - 42.1 °F 62% 29.82 in 10.0 mi South 4.6 mph - N/A   Clear